Weather History for KSJC - June, 2014

Change the Weather History Date:

Tuesday, June 3, 2014

  Actual Average Record
Temperature  
Mean Temperature 66 °F 66 °F  
Max Temperature 78 °F 78 °F 100 °F (1996)
Min Temperature 54 °F 55 °F 40 °F (1903)
Degree Days  
Heating Degree Days 0 1  
Month to date heating degree days 2 3  
Since 1 June heating degree days 2 3  
Since 1 July heating degree days 1901 1989  
Cooling Degree Days 1 2  
Month to date cooling degree days 2 6  
Year to date cooling degree days 93 76  
Since 1 June cooling degree days 2 6  
Growing Degree Days 14 (Base 50)    
Moisture  
Dew Point 49 °F    
Average Humidity 58    
Maximum Humidity 83    
Minimum Humidity 33    
Precipitation  
Precipitation 0.00 in 0.01 in 0.14 in (1999)
Month to date precipitation 0.00 0.03  
Year to date precipitation 4.78 9.83  
Since 1 July precipitation 6.34  
Sea Level Pressure  
Sea Level Pressure 29.90 in    
Wind  
Wind Speed 9 mph (SSW)    
Max Wind Speed 16 mph    
Max Gust Speed 20 mph    
Visibility 10 miles    
Events      
T = Trace of Precipitation, MM = Missing Value Source: NWS Daily Summary

Daily Weather History Graph

Daily Weather History Graph

Search for Another Location

Airport or City:

Trip Planner

Search our weather history database for the weather conditions in past years. The results will help you decide how hot, cold, wet, or windy it might be!

Date:

Astronomy

Jun. 03, 2014 Rise Set
Actual Time 5:47 AM PDT 8:24 PM PDT
Civil Twilight 5:17 AM PDT 8:54 PM PDT
Nautical Twilight 4:39 AM PDT 9:32 PM PDT
Astronomical Twilight 3:56 AM PDT 10:15 PM PDT
Moon 11:11 AM PDT (6/3) No Moon Set
Length of Visible Light 15h 37m
Length of Day
14h 36m
Waxing Crescent, 31% of the Moon is Illuminated
Jun 3
Waxing Crescent
Jun 5
First Quarter
Jun 12
Full
Jun 19
Last Quarter
Jun 27
New

Hourly Weather History & Observations

Time (PDT) Temp. Dew Point Humidity Pressure Visibility Wind Dir Wind Speed Gust Speed Precip Events Conditions
12:53 AM 55.9 °F 48.9 °F 77% 29.91 in 10.0 mi SE 11.5 mph - N/A   Clear
1:53 AM 55.9 °F 48.0 °F 75% 29.91 in 10.0 mi ESE 12.7 mph - N/A   Clear
2:53 AM 55.0 °F 48.0 °F 77% 29.90 in 10.0 mi SE 9.2 mph - N/A   Clear
3:53 AM 55.0 °F 48.0 °F 77% 29.91 in 10.0 mi SSE 8.1 mph - N/A   Clear
4:53 AM 54.0 °F 48.0 °F 80% 29.91 in 10.0 mi ESE 10.4 mph - N/A   Scattered Clouds
5:03 AM 53.6 °F 48.2 °F 82% 29.92 in 10.0 mi ESE 12.7 mph - N/A   Mostly Cloudy
5:53 AM 54.0 °F 46.9 °F 77% 29.93 in 10.0 mi SE 9.2 mph - N/A   Mostly Cloudy
6:53 AM 54.0 °F 46.9 °F 77% 29.94 in 10.0 mi ESE 12.7 mph - N/A   Mostly Cloudy
7:53 AM 55.0 °F 46.9 °F 74% 29.94 in 10.0 mi SE 10.4 mph - N/A   Mostly Cloudy
8:32 AM 55.4 °F 46.4 °F 72% 29.94 in 10.0 mi SE 10.4 mph - N/A   Scattered Clouds
8:53 AM 57.0 °F 48.0 °F 72% 29.94 in 10.0 mi SE 11.5 mph - N/A   Partly Cloudy
9:53 AM 60.1 °F 48.0 °F 64% 29.94 in 10.0 mi SSE 4.6 mph - N/A   Partly Cloudy
10:53 AM 64.0 °F 48.0 °F 56% 29.94 in 10.0 mi Variable 3.5 mph - N/A   Partly Cloudy
11:53 AM 68.0 °F 48.0 °F 49% 29.93 in 10.0 mi Variable 3.5 mph - N/A   Clear
12:53 PM 73.0 °F 46.9 °F 39% 29.91 in 10.0 mi NNW 4.6 mph - N/A   Clear
1:53 PM 75.9 °F 45.0 °F 33% 29.89 in 10.0 mi NNW 5.8 mph - N/A   Clear
2:11 PM 75.2 °F 50.0 °F 41% 29.88 in 10.0 mi NW 9.2 mph - N/A   Partly Cloudy
2:53 PM 73.9 °F 52.0 °F 46% 29.88 in 10.0 mi WNW 11.5 mph - N/A   Clear
3:53 PM 72.0 °F 53.1 °F 51% 29.87 in 10.0 mi WNW 11.5 mph - N/A   Clear
4:53 PM 71.1 °F 53.1 °F 53% 29.86 in 10.0 mi WNW 12.7 mph - N/A   Clear
5:53 PM 69.1 °F 53.1 °F 57% 29.86 in 10.0 mi WNW 11.5 mph - N/A   Clear
6:53 PM 66.9 °F 53.1 °F 61% 29.86 in 10.0 mi WNW 13.8 mph - N/A   Clear
7:53 PM 64.0 °F 53.1 °F 67% 29.87 in 10.0 mi WNW 11.5 mph - N/A   Clear
8:53 PM 61.0 °F 53.1 °F 75% 29.88 in 10.0 mi WNW 8.1 mph - N/A   Clear
9:53 PM 59.0 °F 52.0 °F 78% 29.89 in 10.0 mi WNW 9.2 mph - N/A   Clear
10:53 PM 57.2 °F 51.8 °F 82% 29.90 in 10.0 mi WNW 4.6 mph - N/A   Clear
11:53 PM 57.2 °F 51.8 °F 82% 29.90 in 10.0 mi Calm Calm - N/A   Clear